Home   Weather   Fort Wayne   Past weeks

Flag for USA Past Weather in Fort Wayne, Indiana, USA — Yesterday and Last 2 Weeks

Now
33 °F

Snow. Fog.


Feels Like: 25 °F
Forecast: 30 / 39 °F
Wind: 9 mph from East

Location: Fort Wayne International Airport

Current Time: Dec 4, 2016 at 5:31:19 pm

Latest Report: Dec 4, 2016 at 4:54 pm


Visibility: 0 mi

Pressure: 29.94 "Hg

Humidity: 92%

Dew Point: 31 °F

Location of Fort WayneLocation

Past Weather in Fort Wayne — Graph

°F

Fort Wayne Temperature Yesterday

Maximum temperature yesterday: 37 °F (at 10:54 am)
Minimum temperature yesterday: 32 °F (at 9:54 pm)
Average temperature yesterday: 35 °F

High & Low Weather Summary for the Past Weeks

 TemperatureHumidityPressure
High58 °F (Nov 29, 2:54 pm)97% (Nov 30, 5:54 am)30.39 "Hg (Nov 30, 5:54 am)
Low24 °F (Nov 22, 3:54 am)49% (Nov 21, 2:54 pm)29.34 "Hg (Nov 28, 10:54 pm)
Average38 °F78%30.09 "Hg
* Reported Nov 19 3:54 pm — Dec 4 3:54 pm, Fort Wayne, Weather by CustomWeather, © 2016

Note: Actual official high and low records may vary slightly from our data, if they occured in-between our weather recording intervals... More about our weather records

Advertising

Fort Wayne Weather History for the Previous 24 Hours

Scroll right to see more
 ConditionsComfort  
Time TempWeatherWind HumidityBarometerVisibility
3:54 pm
Sun, Dec 4
35 °FLight snow. Fog.9 mph88%29.97 "Hg2 mi
2:54 pm38 °FLight rain. Overcast.10 mph79%29.99 "Hg7 mi
1:54 pm39 °FMostly cloudy.13 mph70%30.03 "Hg10 mi
12:54 pm38 °FOvercast.10 mph73%30.07 "Hg10 mi
11:54 am38 °FOvercast.9 mph70%30.11 "Hg10 mi
10:54 am36 °FPartly sunny.9 mph75%30.16 "Hg9 mi
9:54 am34 °FOvercast.7 mph82%30.19 "Hg8 mi
8:54 am33 °FMore clouds than sun.7 mph82%30.22 "Hg9 mi
7:54 am31 °FMore clouds than sun.6 mph82%30.21 "Hg10 mi
6:54 am31 °FMostly cloudy.6 mph82%30.23 "Hg10 mi
5:54 am32 °FMostly cloudy.6 mph79%30.23 "Hg10 mi
4:54 am32 °FMostly cloudy.6 mph82%30.24 "Hg10 mi
3:54 am33 °FOvercast.3 mph82%30.28 "Hg10 mi
2:54 am33 °FOvercast.3 mph82%30.28 "Hg10 mi
1:54 am32 °FOvercast.3 mph85%30.29 "Hg10 mi
12:54 am32 °FOvercast.No wind82%30.30 "Hg10 mi
11:54 pm
Sat, Dec 3
32 °FOvercast.No wind82%30.32 "Hg10 mi
10:54 pm32 °FOvercast.3 mph75%30.31 "Hg10 mi
9:54 pm32 °FPassing clouds.3 mph73%30.33 "Hg10 mi
8:54 pm33 °FOvercast.No wind75%30.33 "Hg10 mi
7:54 pm33 °FPassing clouds.No wind70%30.34 "Hg10 mi
6:54 pm34 °FOvercast.5 mph67%30.33 "Hg10 mi
5:54 pm35 °FOvercast.5 mph67%30.33 "Hg10 mi
Weather by CustomWeather, © 2016

See weather overviewHow to use our weather pages